Augsburg, Germany

5:59 AM CEST on June 29, 2017 (GMT +0200)
Augsburg

Weather History for EDMA - June, 2017

Change the Weather History Date:

Monday, June 19, 2017

  Actual Average Record
Temperature  
Mean Temperature 68 °F -  
Max Temperature 84 °F 71 °F 92 °F (2013)
Min Temperature 52 °F 51 °F 42 °F (1997)
Cooling Degree Days 3    
Growing Degree Days 18 (Base 50)    
Moisture  
Dew Point 52 °F    
Average Humidity 47    
Maximum Humidity 76    
Minimum Humidity 28    
Precipitation  
Precipitation 0.00 in - - ()
Sea Level Pressure  
Sea Level Pressure 30.16 in    
Wind  
Wind Speed 5 mph ()    
Max Wind Speed 13 mph    
Max Gust Speed -    
Visibility 11.2 miles    
Events      
Averages and records for this station are not official NWS values.
T = Trace of Precipitation, MM = Missing Value Source: Averaged Metar Reports

Daily Weather History Graph

Daily Weather History Graph

Search for Another Location

Airport or City:

Trip Planner

Search our weather history database for the weather conditions in past years. The results will help you decide how hot, cold, wet, or windy it might be!

Date:

Astronomy

Jun. 19, 2017 Rise Set
Actual Time 5:14 AM CEST 9:21 PM CEST
Civil Twilight 4:32 AM CEST 10:03 PM CEST
Nautical Twilight 3:33 AM CEST 11:02 PM CEST
Astronomical Twilight 1:38 AM CEST 12:57 AM CEST
Moon 2:23 AM CEST (6/19) 3:27 PM CEST (6/19)
Length of Visible Light 17h 30m
Length of Day
16h 06m
Waning Crescent, 29% of the Moon is Illuminated
Jun 19
Waning Crescent
Jun 24
New
Jul 1
First Quarter
Jul 9
Full
Jul 16
Last Quarter

Hourly Weather History & Observations

Time (CEST) Temp. Heat Index Dew Point Humidity Pressure Visibility Wind Dir Wind Speed Gust Speed Precip Events Conditions
12:00 AM 57 °F - 49 °F 67% 30.25 in 44 mi SE 2.2 mph - -   Overcast
1:00 AM 56 °F - 48 °F 67% 30.24 in 44 mi East 4.5 mph - -  
3:00 AM 52 °F - 47 °F 76% 30.23 in 31 mi ENE 4.5 mph - -   Overcast
4:00 AM 53 °F - 47 °F 73% 30.22 in 37 mi ENE 6.7 mph - -   Overcast
6:00 AM 56 °F - 47 °F 64% 30.19 in 31 mi East 6.7 mph - -  
6:20 AM 59.0 °F - 46.4 °F 63% 30.21 in - Variable 1.2 mph - N/A   Clear
6:50 AM 60.8 °F - 48.2 °F 63% 30.21 in - SSE 2.3 mph - N/A   Clear
7:00 AM 59 °F - 50 °F 63% 30.19 in 31 mi Calm Calm - -  
7:20 AM 64.4 °F - 50.0 °F 59% 30.21 in - ESE 3.5 mph - N/A   Clear
7:50 AM 64.4 °F - 50.0 °F 59% 30.21 in - ESE 4.6 mph - N/A   Clear
8:20 AM 66.2 °F - 50.0 °F 56% 30.21 in - ESE 6.9 mph - N/A   Clear
8:50 AM 68.0 °F - 50.0 °F 52% 30.21 in - ESE 8.1 mph - N/A   Clear
9:00 AM 68 °F - 51 °F 44% 30.17 in 10 mi East 11.2 mph - -  
9:20 AM 69.8 °F - 50.0 °F 49% 30.21 in - ESE 12.7 mph - N/A   Clear
9:50 AM 71.6 °F - 50.0 °F 46% 30.21 in - East 12.7 mph - N/A   Clear
10:00 AM 70 °F - 50 °F 38% 30.16 in 12 mi ESE 13.4 mph - -  
10:20 AM 73.4 °F - 50.0 °F 44% 30.21 in - ESE 11.5 mph - N/A   Clear
10:50 AM 73.4 °F - 50.0 °F 44% 30.21 in - SE 10.4 mph - N/A   Clear
11:20 AM 75.2 °F - 51.8 °F 44% 30.21 in - ESE 9.2 mph - N/A   Clear
11:50 AM 75.2 °F - 50.0 °F 41% 30.21 in - ESE 9.2 mph - N/A   Clear
12:00 PM 75 °F - 52 °F 33% 30.14 in 12 mi ESE 11.2 mph - -  
12:20 PM 77.0 °F - 50.0 °F 39% 30.18 in - ESE 9.2 mph - N/A   Clear
12:50 PM 77.0 °F - 51.8 °F 41% 30.18 in - SE 8.1 mph - N/A   Clear
1:00 PM 78 °F - 54 °F 34% 30.12 in 11 mi East 8.9 mph - -  
1:20 PM 78.8 °F - 51.8 °F 39% 30.18 in - SE 9.2 mph - N/A   Clear
1:50 PM 78.8 °F - 51.8 °F 39% 30.18 in - ESE 5.8 mph - N/A   Clear
2:20 PM 80.6 °F - 51.8 °F 37% 30.15 in - ESE 6.9 mph - N/A   Clear
2:50 PM 80.6 °F 80.3 °F 53.6 °F 39% 30.15 in - Variable 4.6 mph - N/A   Clear
3:00 PM 80 °F - 53 °F 28% 30.08 in 25 mi South 4.5 mph - -  
3:20 PM 82.4 °F 81.4 °F 53.6 °F 37% 30.15 in - Variable 3.5 mph - N/A   Clear
3:50 PM 82.4 °F 81.7 °F 55.4 °F 39% 30.12 in - Variable 4.6 mph - N/A   Clear
4:20 PM 82.4 °F 81.4 °F 53.6 °F 37% 30.12 in - Variable 6.9 mph - N/A   Clear
4:50 PM 84.2 °F 83.5 °F 57.2 °F 40% 30.12 in - Variable 4.6 mph - N/A   Clear
5:20 PM 84.2 °F 83.5 °F 57.2 °F 40% 30.12 in - Variable 3.5 mph - N/A   Clear
5:50 PM 84.2 °F 82.8 °F 53.6 °F 35% 30.09 in - Variable 4.6 mph - N/A   Clear
6:20 PM 84.2 °F 83.0 °F 55.4 °F 37% 30.09 in - East 5.8 mph - N/A   Clear
6:50 PM 82.4 °F 82.0 °F 57.2 °F 42% 30.09 in - East 5.8 mph - N/A   Clear
7:00 PM 82 °F - 58 °F 33% 30.01 in 31 mi NE 6.7 mph - -  
7:20 PM 82.4 °F 82.5 °F 59.0 °F 45% 30.09 in - ENE 4.6 mph - N/A   Clear
7:50 PM 80.6 °F 80.8 °F 57.2 °F 45% 30.09 in - ENE 4.6 mph - N/A   Clear
8:20 PM 78.8 °F - 57.2 °F 47% 30.09 in - ENE 3.5 mph - N/A   Clear
8:50 PM 75.2 °F - 59.0 °F 57% 30.09 in - NE 3.5 mph - N/A   Clear
9:00 PM 74 °F - 59 °F 49% 30.03 in 37 mi NE 4.5 mph - -  
10:00 PM 69 °F - 58 °F 59% 30.06 in 28 mi NE 4.5 mph - -